Weather History for HKMO - August, 2013

Change the Weather History Date:

Saturday, August 17, 2013

  Actual Average Record
Temperature  
Mean Temperature 74 °F -  
Max Temperature 82 °F 85 °F - ()
Min Temperature 67 °F 67 °F - ()
Cooling Degree Days 10    
Growing Degree Days 24 (Base 50)    
Moisture  
Dew Point 68 °F    
Average Humidity 80    
Maximum Humidity 94    
Minimum Humidity 60    
Precipitation  
Precipitation 0.00 in 0.09 in - ()
Sea Level Pressure  
Sea Level Pressure 29.96 in    
Wind  
Wind Speed 5 mph ()    
Max Wind Speed 15 mph    
Max Gust Speed -    
Visibility 8.1 miles    
Events      
T = Trace of Precipitation, MM = Missing Value Source: Averaged Metar Reports

Daily Weather History Graph

Daily Weather History Graph

Search for Another Location

Airport or City:

Trip Planner

Search our weather history database for the weather conditions in past years. The results will help you decide how hot, cold, wet, or windy it might be!

Date:

Astronomy

Aug. 17, 2013 Rise Set
Actual Time 6:26 AM EAT 6:25 PM EAT
Civil Twilight 6:04 AM EAT 6:46 PM EAT
Nautical Twilight 5:40 AM EAT 7:11 PM EAT
Astronomical Twilight 5:15 AM EAT 7:35 PM EAT
Moon 2:54 PM EAT (8/17) 2:35 AM EAT (8/17)
Length of Visible Light 12h 41m
Length of Day
11h 59m
Waxing Gibbous, 81% of the Moon is Illuminated
Aug 17
Waxing Gibbous
Aug 21
Full
Aug 28
Last Quarter
Sep 5
New
Sep 12
First Quarter

Hourly Weather History & Observations

Time (EAT) Temp. Heat Index Dew Point Humidity Pressure Visibility Wind Dir Wind Speed Gust Speed Precip Events Conditions
12:00 AM 71.6 °F - 68.0 °F 88% 29.98 in 6.2 mi Calm Calm - N/A   Partly Cloudy
1:00 AM 69.8 °F - 68.0 °F 94% 29.95 in 6.2 mi Calm Calm - N/A   Partly Cloudy
2:00 AM 69.8 °F - 68.0 °F 94% 29.95 in 6.2 mi Calm Calm - N/A   Partly Cloudy
3:00 AM 70 °F - 67 °F 87% 29.94 in 19 mi WSW 5.8 mph - -   Scattered Clouds
3:00 AM 69.8 °F - 66.2 °F 88% 29.95 in 6.2 mi WSW 5.8 mph - N/A   Partly Cloudy
4:00 AM 69.8 °F - 68.0 °F 94% 29.95 in 6.2 mi WSW 8.1 mph - N/A   Partly Cloudy
5:00 AM 69.8 °F - 68.0 °F 94% 29.95 in 6.2 mi SW 6.9 mph - N/A   Partly Cloudy
6:00 AM 69.8 °F - 68.0 °F 94% 29.98 in 6.2 mi WSW 5.8 mph - N/A   Scattered Clouds
7:00 AM 71.6 °F - 68.0 °F 88% 29.98 in 6.2 mi WSW 8.1 mph - N/A   Mostly Cloudy
8:00 AM 73.4 °F - 68.0 °F 83% 29.98 in 6.2 mi WSW 5.8 mph - N/A   Mostly Cloudy
9:00 AM 75 °F - 70 °F 79% 30.01 in 19 mi SSW 10.4 mph - -   Partly Cloudy
9:00 AM 75.2 °F - 69.8 °F 83% 30.01 in 6.2 mi SSW 10.4 mph - N/A   Mostly Cloudy
10:00 AM 77.0 °F - 69.8 °F 78% 30.01 in 6.2 mi SSE 5.8 mph - N/A   Mostly Cloudy
11:00 AM 80.6 °F 83.9 °F 69.8 °F 70% 30.01 in 6.2 mi South 11.5 mph - N/A   Mostly Cloudy
12:00 PM 82.4 °F 85.4 °F 68.0 °F 62% 29.98 in 6.2 mi SSW 11.5 mph - N/A   Mostly Cloudy
1:00 PM 80.6 °F 83.2 °F 68.0 °F 65% 29.98 in 6.2 mi East 10.4 mph - N/A   Mostly Cloudy
2:00 PM 82.4 °F 85.4 °F 68.0 °F 62% 29.95 in 6.2 mi SSE 13.8 mph - N/A   Mostly Cloudy
3:00 PM 80 °F - 68 °F 60% 29.93 in 19 mi SSE 12.7 mph - -   Scattered Clouds
3:00 PM 80.6 °F 83.2 °F 68.0 °F 65% 29.92 in 6.2 mi SSE 12.7 mph - N/A   Mostly Cloudy
4:00 PM 80.6 °F 83.2 °F 68.0 °F 65% 29.92 in 6.2 mi SE 15.0 mph - N/A   Mostly Cloudy
5:00 PM 78.8 °F - 68.0 °F 69% 29.92 in 6.2 mi SSE 11.5 mph - N/A   Scattered Clouds
6:00 PM 77.0 °F - 69.8 °F 78% 29.92 in 6.2 mi SSE 10.4 mph - N/A   Scattered Clouds
7:00 PM 75.2 °F - 69.8 °F 83% 29.92 in 6.2 mi South 5.8 mph - N/A   Scattered Clouds
8:00 PM 73.4 °F - 68.0 °F 83% 29.95 in 6.2 mi South 3.5 mph - N/A   Partly Cloudy
9:00 PM 73 °F - 68 °F 79% 29.95 in 19 mi South 4.6 mph - -   Scattered Clouds
9:00 PM 73.4 °F - 68.0 °F 83% 29.95 in 6.2 mi South 4.6 mph - N/A   Partly Cloudy
11:00 PM 71.6 °F - 68.0 °F 88% 29.98 in 6.2 mi WSW 3.5 mph - N/A   Partly Cloudy